| time (UTC) | temp F | wind direction | speed knots | gust knots | rain 1hr in | rain 24hr in | rain mn in | humidity % | barometer mb |
| 20260906194533 | 102 | 181 | 2.6 | 7.8 | 0.00 | 0.00 | 0.00 | 33 | 1008.7 |
| 20260906193030 | 100 | 181 | 0.0 | 3.5 | 0.00 | 0.00 | 0.00 | 37 | 1008.8 |
| 20260906191537 | 101 | 181 | 0.0 | 4.3 | 0.00 | 0.00 | 0.00 | 35 | 1009.2 |
| 20260906190029 | 101 | 181 | 0.9 | 2.6 | 0.00 | 0.00 | 0.00 | 34 | 1009.3 |
| 20260906184520 | 101 | 181 | 1.7 | 6.1 | 0.00 | 0.00 | 0.00 | 34 | 1009.5 |
| 20260906183020 | 99 | 181 | 0.9 | 3.5 | 0.00 | 0.00 | 0.00 | 35 | 1009.8 |
| 20260906181537 | 98 | 181 | 0.0 | 3.5 | 0.00 | 0.00 | 0.00 | 37 | 1010.1 |
| 20260906180021 | 99 | 181 | 0.0 | 3.5 | 0.00 | 0.00 | 0.00 | 36 | 1010.4 |
| 20260906174514 | 99 | 181 | 0.0 | 3.5 | 0.00 | 0.00 | 0.00 | 37 | 1010.7 |
| 20260906173013 | 100 | 181 | 0.9 | 3.5 | 0.00 | 0.00 | 0.00 | 35 | 1011.0 |
| 20260906171510 | 100 | 181 | 0.0 | 2.6 | 0.00 | 0.00 | 0.00 | 37 | 1011.2 |
| 20260906170007 | 98 | 181 | 0.0 | 3.5 | 0.00 | 0.00 | 0.00 | 39 | 1011.3 |
| 20260906164606 | 97 | 181 | 0.0 | 1.7 | 0.00 | 0.00 | 0.00 | 40 | 1011.5 |
| 20260906164500 | 97 | 181 | 0.0 | 4.3 | 0.00 | 0.00 | 0.00 | 40 | 1011.5 |
| 20260906163059 | 96 | 181 | 0.0 | 2.6 | 0.00 | 0.00 | 0.00 | 40 | 1011.5 |
| 20260906161553 | 95 | 181 | 0.0 | 3.5 | 0.00 | 0.00 | 0.00 | 42 | 1011.5 |
| 20260906160049 | 94 | 181 | 0.0 | 2.6 | 0.00 | 0.00 | 0.00 | 43 | 1011.5 |
| 20260906154545 | 92 | 181 | 0.0 | 2.6 | 0.00 | 0.00 | 0.00 | 45 | 1011.6 |
| 20260906153042 | 91 | 181 | 0.0 | 1.7 | 0.00 | 0.00 | 0.00 | 46 | 1011.4 |
| 20260906151536 | 90 | 181 | 0.0 | 2.6 | 0.00 | 0.00 | 0.00 | 48 | 1011.4 |
| 20260906150031 | 88 | 181 | 0.0 | 1.7 | 0.00 | 0.00 | 0.00 | 50 | 1011.4 |
| 20260906144527 | 86 | 181 | 0.0 | 0.9 | 0.00 | 0.00 | 0.00 | 53 | 1011.5 |
| 20260906143023 | 85 | 181 | 0.0 | 1.7 | 0.00 | 0.00 | 0.00 | 56 | 1011.4 |
| 20260906141528 | 83 | 181 | 0.0 | 2.6 | 0.00 | 0.00 | 0.00 | 60 | 1011.2 |
| 20260906140017 | 80 | 181 | 0.0 | 2.6 | 0.00 | 0.00 | 0.00 | 65 | 1011.4 |
| 20260906134520 | 77 | 181 | 0.0 | 0.0 | 0.00 | 0.00 | 0.00 | 70 | 1011.4 |
| 20260906133013 | 76 | 181 | 0.0 | 0.0 | 0.00 | 0.00 | 0.00 | 73 | 1011.3 |
| 20260906131512 | 75 | 181 | 0.0 | 0.0 | 0.00 | 0.00 | 0.00 | 75 | 1011.1 |
| 20260906130008 | 74 | 181 | 0.0 | 0.0 | 0.00 | 0.00 | 0.00 | 76 | 1010.8 |
| 20260906124506 | 74 | 181 | 0.0 | 0.0 | 0.00 | 0.00 | 0.00 | 75 | 1010.5 |
| 20260906123008 | 74 | 181 | 0.0 | 0.0 | 0.00 | 0.00 | 0.00 | 75 | 1010.5 |
| 20260906121502 | 73 | 181 | 0.0 | 0.0 | 0.00 | 0.00 | 0.00 | 75 | 1010.2 |
| 20260906120100 | 73 | 181 | 0.0 | 0.0 | 0.00 | 0.00 | 0.00 | 74 | 1010.1 |
| 20260906114601 | 74 | 181 | 0.0 | 0.0 | 0.00 | 0.00 | 0.00 | 74 | 1010.0 |
| 20260906113056 | 74 | 181 | 0.0 | 0.0 | 0.00 | 0.00 | 0.00 | 74 | 1009.8 |
| 20260906111555 | 74 | 181 | 0.0 | 0.0 | 0.00 | 0.00 | 0.00 | 73 | 1009.6 |
| 20260906110051 | 75 | 181 | 0.0 | 0.0 | 0.00 | 0.00 | 0.00 | 73 | 1009.5 |
| 20260906104557 | 75 | 181 | 0.0 | 0.0 | 0.00 | 0.00 | 0.00 | 72 | 1009.4 |
| 20260906103048 | 75 | 181 | 0.0 | 0.0 | 0.00 | 0.00 | 0.00 | 71 | 1009.4 |
| 20260906101548 | 76 | 181 | 0.0 | 0.0 | 0.00 | 0.00 | 0.00 | 70 | 1009.3 |
| 20260906100046 | 76 | 181 | 0.0 | 0.0 | 0.00 | 0.00 | 0.00 | 70 | 1009.3 |
| 20260906094559 | 76 | 181 | 0.0 | 0.0 | 0.00 | 0.00 | 0.00 | 69 | 1009.2 |
| 20260906093103 | 76 | 181 | 0.0 | 0.0 | 0.00 | 0.00 | 0.00 | 69 | 1009.4 |
| 20260906091540 | 77 | 181 | 0.0 | 0.0 | 0.00 | 0.00 | 0.00 | 68 | 1009.3 |
| 20260906090039 | 77 | 181 | 0.0 | 0.0 | 0.00 | 0.00 | 0.00 | 67 | 1009.3 |
| 20260906084536 | 78 | 181 | 0.0 | 0.0 | 0.00 | 0.00 | 0.00 | 66 | 1009.2 |
| 20260906083044 | 78 | 181 | 0.0 | 0.0 | 0.00 | 0.00 | 0.00 | 65 | 1009.1 |
| 20260906081537 | 79 | 181 | 0.0 | 0.0 | 0.00 | 0.00 | 0.00 | 64 | 1009.1 |
| 20260906080039 | 79 | 181 | 0.0 | 0.0 | 0.00 | 0.00 | 0.00 | 63 | 1009.2 |
| 20260906074533 | 80 | 181 | 0.0 | 0.0 | 0.00 | 0.00 | 0.00 | 62 | 1009.0 |
| 20260906073028 | 80 | 181 | 0.0 | 0.0 | 0.00 | 0.00 | 0.00 | 61 | 1009.0 |
| 20260906071525 | 80 | 181 | 0.0 | 0.0 | 0.00 | 0.00 | 0.00 | 61 | 1008.8 |
| 20260906070024 | 80 | 181 | 0.0 | 1.7 | 0.00 | 0.00 | 0.00 | 61 | 1008.7 |
| 20260906064523 | 81 | 181 | 0.0 | 0.0 | 0.00 | 0.00 | 0.00 | 61 | 1008.8 |
| 20260906063022 | 81 | 181 | 0.0 | 0.0 | 0.00 | 0.00 | 0.00 | 60 | 1008.8 |
| 20260906061526 | 81 | 181 | 0.0 | 0.0 | 0.00 | 0.00 | 0.00 | 60 | 1008.8 |
| 20260906060019 | 81 | 181 | 0.0 | 0.0 | 0.00 | 0.00 | 0.00 | 60 | 1008.9 |
| 20260906054519 | 82 | 181 | 0.0 | 0.0 | 0.00 | 0.00 | 0.00 | 59 | 1008.9 |
| 20260906053014 | 83 | 181 | 0.0 | 0.0 | 0.00 | 0.00 | 0.00 | 57 | 1009.0 |
| 20260906051512 | 83 | 181 | 0.0 | 0.0 | 0.00 | 0.00 | 0.00 | 56 | 1009.0 |
| 20260906050008 | 84 | 181 | 0.0 | 0.0 | 0.00 | 0.00 | 0.00 | 55 | 1008.7 |
| 20260906044509 | 84 | 181 | 0.0 | 0.9 | 0.00 | 0.00 | 0.00 | 55 | 1008.9 |
| 20260906043006 | 84 | 181 | 0.0 | 0.0 | 0.00 | 0.00 | 0.00 | 54 | 1008.8 |
| 20260906041503 | 85 | 181 | 0.0 | 0.0 | 0.00 | 0.00 | 0.00 | 53 | 1008.9 |
| 20260906040106 | 86 | 181 | 0.0 | 1.7 | 0.00 | 0.00 | 0.00 | 52 | 1008.9 |
| 20260906034603 | 86 | 181 | 0.0 | 1.7 | 0.00 | 0.00 | 0.00 | 52 | 1008.8 |
| 20260906033055 | 87 | 181 | 0.0 | 0.0 | 0.00 | 0.00 | 0.00 | 51 | 1008.7 |
| 20260906031553 | 88 | 181 | 0.0 | 1.7 | 0.00 | 0.00 | 0.00 | 50 | 1008.6 |
| 20260906030051 | 88 | 181 | 0.0 | 2.6 | 0.00 | 0.00 | 0.00 | 49 | 1008.5 |
| 20260906024551 | 89 | 181 | 0.0 | 2.6 | 0.00 | 0.00 | 0.00 | 48 | 1008.4 |
| 20260906023047 | 89 | 181 | 0.9 | 3.5 | 0.00 | 0.00 | 0.00 | 48 | 1008.1 |
| 20260906021547 | 89 | 181 | 0.0 | 2.6 | 0.00 | 0.00 | 0.00 | 48 | 1007.8 |
| 20260906020046 | 89 | 181 | 0.9 | 2.6 | 0.00 | 0.00 | 0.00 | 48 | 1007.6 |
| 20260906014613 | 90 | 181 | 0.0 | 0.9 | 0.00 | 0.00 | 0.00 | 47 | 1007.7 |
| 20260906013047 | 91 | 181 | 0.0 | 0.0 | 0.00 | 0.00 | 0.00 | 46 | 1007.4 |
| 20260906011541 | 92 | 181 | 0.0 | 0.0 | 0.00 | 0.00 | 0.00 | 45 | 1007.2 |
| 20260906010039 | 93 | 181 | 0.0 | 2.6 | 0.00 | 0.00 | 0.00 | 43 | 1007.1 |
| 20260906004537 | 94 | 181 | 0.0 | 2.6 | 0.00 | 0.00 | 0.00 | 42 | 1007.0 |
| 20260906003038 | 95 | 181 | 0.0 | 2.6 | 0.00 | 0.00 | 0.00 | 41 | 1006.8 |
| 20260906001536 | 95 | 181 | 0.0 | 3.5 | 0.00 | 0.00 | 0.00 | 40 | 1007.2 |
| 20260906000041 | 96 | 181 | 2.6 | 6.1 | 0.00 | 0.00 | 0.00 | 39 | 1007.1 |
| 20260905234537 | 97 | 181 | 0.0 | 5.2 | 0.00 | 0.00 | 0.00 | 38 | 1007.1 |
| 20260905233033 | 98 | 181 | 0.9 | 5.2 | 0.00 | 0.00 | 0.00 | 36 | 1007.1 |
| 20260905231530 | 100 | 182 | 1.7 | 7.8 | 0.00 | 0.00 | 0.00 | 35 | 1007.1 |
| 20260905230027 | 101 | 182 | 2.6 | 6.1 | 0.00 | 0.00 | 0.00 | 33 | 1007.2 |
| 20260905224526 | 101 | 182 | 2.6 | 6.1 | 0.00 | 0.00 | 0.00 | 34 | 1007.0 |
| 20260905223025 | 101 | 182 | 1.7 | 5.2 | 0.00 | 0.00 | 0.00 | 33 | 1007.1 |
| 20260905221525 | 101 | 184 | 1.7 | 7.0 | 0.00 | 0.00 | 0.00 | 34 | 1006.9 |
| 20260905220024 | 101 | 184 | 2.6 | 8.7 | 0.00 | 0.00 | 0.00 | 35 | 1007.0 |
| 20260905214526 | 101 | 186 | 2.6 | 6.1 | 0.00 | 0.00 | 0.00 | 35 | 1007.1 |
| 20260905213021 | 101 | 187 | 2.6 | 7.8 | 0.00 | 0.00 | 0.00 | 35 | 1007.2 |
| 20260905211533 | 101 | 186 | 0.9 | 8.7 | 0.00 | 0.00 | 0.00 | 36 | 1007.1 |
| 20260905210020 | 102 | 181 | 3.5 | 7.8 | 0.00 | 0.00 | 0.00 | 34 | 1007.3 |
| 20260905204524 | 102 | 176 | 1.7 | 7.8 | 0.00 | 0.00 | 0.00 | 34 | 1007.4 |
| 20260905203012 | 102 | 184 | 2.6 | 7.8 | 0.00 | 0.00 | 0.00 | 34 | 1008.0 |
| 20260905201508 | 101 | 197 | 0.9 | 7.8 | 0.00 | 0.00 | 0.00 | 35 | 1008.1 |
| 20260905200007 | 101 | 194 | 1.7 | 7.8 | 0.00 | 0.00 | 0.00 | 36 | 1008.5 |